Location: Borgo
(42.3939°N, 9.2791°E)
Time: 18:17:56
(UTC+00:00)

USA 229 DEB - Pass Details

Date: 24 January 2021
Orbit: 965 x 1247 km, 63.4° (Epoch: 26 February)

Event Time Altitude Azimuth Distance (km) Brightness Sun altitude
Rises 18:33:10 0° 324° (NW) 3,968 7.1 -23.2°
Reaches altitude 10° 18:35:48 10° 325° (NW) 3,045 6.4 -23.7°
Maximum altitude 18:43:10 86° 53° (NE) 1,205 3.8 -25.1°
Enters shadow 18:47:27 30° 143° (SE) 2,040 4.8 -25.9°
